Location: Huberhof
(49.2050°N, 7.4980°E)
Time: 00:29:35
(UTC+00:00)

H-2A R/B - Pass Details

Date: 29 October 2020
Orbit: 733 x 837 km, 98.2° (Epoch: 26 November)

Event Time Altitude Azimuth Distance (km) Brightness Sun altitude
Rises 17:56:43 0° 152° (SSE) 3,359 5.1 -17.4°
Reaches altitude 10° 17:59:04 10° 149° (SSE) 2,437 4.3 -17.8°
Maximum altitude 18:04:24 61° 70° (ENE) 952 2.1 -18.6°
Drops below altitude 10° 18:09:47 10° 352° (N) 2,461 4.7 -19.5°
Sets 18:12:10 0° 349° (N) 3,394 5.5 -19.9°
